AFR860 LFPG-DXXX

Flight info

Callsign AFR860
Flight time N/A
Altitude 35000
Route LGL UT176 TERPO/N0486F370 DCT ERIGA DCT FUJTI DCT PEPET DCT BAKUP DCT BATAX/N0481F390 DCT PINOX DCT TOFEF DCT ALAGU DCT AMSEL UR722 MABAP DCT BULIS UR866 ONIMI/N0484F410 UR866 OG UR983 PAMPA
Aircraft A359/H-SDE2E3GHIJ3J4J5LM1ORWXY/LB1D1

Departure

Time N/A
Airport Charles de Gaulle International Airport (LFPG)

Arrival

Time 2026-04-27 21:46
Airport Lomé–Tokoin International Airport (DXXX)
Time Latitude Longitude Altitude Speed Heading
2026-04-27 21:35 6.45278 1.14920 11702 ft 304 kts 152°
2026-04-27 21:35 6.43383 1.15768 11089 ft 295 kts 152°
2026-04-27 21:35 6.41521 1.16602 10417 ft 290 kts 152°
2026-04-27 21:36 6.39725 1.17401 10041 ft 275 kts 152°
2026-04-27 21:36 6.38099 1.18345 9260 ft 271 kts 134°
2026-04-27 21:36 6.37052 1.19908 8655 ft 272 kts 108°
2026-04-27 21:36 6.36607 1.21750 8177 ft 271 kts 99°
2026-04-27 21:37 6.36317 1.23582 7745 ft 271 kts 98°
2026-04-27 21:37 6.36034 1.25476 7301 ft 272 kts 98°
2026-04-27 21:37 6.35752 1.27354 6879 ft 271 kts 98°
2026-04-27 21:37 6.35468 1.29228 6447 ft 271 kts 98°
2026-04-27 21:38 6.35179 1.31100 6073 ft 267 kts 98°
2026-04-27 21:38 6.34900 1.32880 5796 ft 249 kts 98°
2026-04-27 21:38 6.34932 1.34549 5439 ft 234 kts 73°
2026-04-27 21:38 6.35727 1.35925 5036 ft 225 kts 46°
2026-04-27 21:39 6.36867 1.36957 4696 ft 218 kts 39°
2026-04-27 21:39 6.38013 1.37929 4481 ft 212 kts 45°
2026-04-27 21:39 6.38651 1.39209 4270 ft 205 kts 80°
2026-04-27 21:39 6.38429 1.40600 4032 ft 206 kts 116°
2026-04-27 21:40 6.37438 1.41601 3832 ft 209 kts 152°
2026-04-27 21:40 6.36026 1.41858 3651 ft 210 kts 187°
2026-04-27 21:40 6.34696 1.41255 3464 ft 209 kts 219°
2026-04-27 21:40 6.33841 1.40087 3277 ft 208 kts 244°
2026-04-27 21:41 6.33135 1.38824 3125 ft 207 kts 232°
2026-04-27 21:41 6.32152 1.37843 3069 ft 199 kts 219°
2026-04-27 21:41 6.31061 1.37003 2996 ft 197 kts 217°
2026-04-27 21:41 6.29983 1.36154 2926 ft 196 kts 218°
2026-04-27 21:42 6.28919 1.35302 2793 ft 193 kts 219°
2026-04-27 21:42 6.27885 1.34471 2567 ft 187 kts 218°
2026-04-27 21:42 6.26880 1.33664 2315 ft 182 kts 218°
2026-04-27 21:42 6.25922 1.32898 2076 ft 171 kts 217°
2026-04-27 21:43 6.25023 1.32178 1870 ft 160 kts 218°
2026-04-27 21:43 6.24183 1.31505 1674 ft 149 kts 217°
2026-04-27 21:43 6.23399 1.30878 1472 ft 140 kts 217°
2026-04-27 21:43 6.22650 1.30275 1304 ft 137 kts 217°
2026-04-27 21:44 6.21903 1.29673 1110 ft 137 kts 217°
2026-04-27 21:44 6.21157 1.29069 968 ft 138 kts 218°
2026-04-27 21:44 6.20403 1.28461 785 ft 139 kts 218°
2026-04-27 21:44 6.19650 1.27861 618 ft 138 kts 216°
2026-04-27 21:45 6.18903 1.27262 418 ft 137 kts 218°
2026-04-27 21:45 6.18155 1.26665 250 ft 137 kts 216°
2026-04-27 21:45 6.17411 1.26077 88 ft 134 kts 217°
2026-04-27 21:45 6.16756 1.25558 83 ft 104 kts 218°
2026-04-27 21:46 6.16261 1.25166 64 ft 78 kts 218°
2026-04-27 21:46 6.15908 1.24886 68 ft 52 kts 218°
2026-04-27 21:46 6.15699 1.24722 65 ft 25 kts 218°
2026-04-27 21:46 6.15614 1.24654 65 ft 14 kts 218°
2026-04-27 21:47 6.15553 1.24589 68 ft 11 kts 251°
2026-04-27 21:47 6.15572 1.24514 62 ft 11 kts 315°
2026-04-27 21:47 6.15646 1.24502 69 ft 11 kts
2026-04-27 21:47 6.15725 1.24515 73 ft 12 kts 18°
2026-04-27 21:48 6.15797 1.24559 66 ft 13 kts 38°
2026-04-27 21:48 6.15875 1.24620 73 ft 16 kts 38°
2026-04-27 21:48 6.15967 1.24694 67 ft 18 kts 39°
2026-04-27 21:48 6.16067 1.24774 70 ft 20 kts 38°
2026-04-27 21:49 6.16186 1.24868 64 ft 24 kts 38°
2026-04-27 21:49 6.16310 1.24966 66 ft 23 kts 38°
2026-04-27 21:49 6.16442 1.25070 62 ft 26 kts 38°
2026-04-27 21:49 6.16581 1.25181 66 ft 25 kts 38°
2026-04-27 21:50 6.16696 1.25279 67 ft 22 kts 46°
2026-04-27 21:50 6.16812 1.25380 83 ft 22 kts 39°
2026-04-27 21:50 6.16926 1.25474 85 ft 20 kts 38°
2026-04-27 21:50 6.17016 1.25546 85 ft 13 kts 38°
2026-04-27 21:51 6.17058 1.25559 81 ft 5 kts 340°
2026-04-27 21:51 6.17085 1.25532 82 ft 6 kts 309°
2026-04-27 21:51 6.17107 1.25504 87 ft 2 kts 308°
2026-04-27 21:51 6.17112 1.25499 87 ft 1 kts 309°
2026-04-27 21:52 6.17112 1.25498 87 ft 0 kts 309°